Time,TemperatureF,DewpointF,PressureIn,WindDirection,WindDirectionDegrees,WindSpeedMPH,WindSpeedGustMPH,Humidity,HourlyPrecipIn,Conditions,Clouds,dailyrainin,SoftwareType,DateUTC
2013-08-30 00:01:00,68.4,64.3,29.84,North,0,0.0,0.0,87,0.00,,,0.00,WUHU21623XXSP,2013-08-30 04:01:00,
2013-08-30 00:03:00,68.2,64.1,29.83,North,0,0.0,0.0,87,0.00,,,0.00,WUHU21623XXSP,2013-08-30 04:03:00,
2013-08-30 00:08:00,68.2,64.1,29.84,North,0,0.0,0.0,87,0.00,,,0.00,WUHU21623XXSP,2013-08-30 04:08:00,
2013-08-30 00:13:00,68.2,64.1,29.84,North,0,0.0,0.0,87,0.00,,,0.00,WUHU21623XXSP,2013-08-30 04:13:00,
2013-08-30 00:18:00,67.8,63.8,29.84,North,0,0.0,0.0,87,0.00,,,0.00,WUHU21623XXSP,2013-08-30 04:18:00,
2013-08-30 00:23:00,67.8,63.8,29.83,North,0,0.0,0.0,87,0.00,,,0.00,WUHU21623XXSP,2013-08-30 04:23:00,
2013-08-30 00:28:00,67.6,63.6,29.83,North,0,0.0,0.0,87,0.00,,,0.00,WUHU21623XXSP,2013-08-30 04:28:00,
2013-08-30 00:33:00,67.6,63.9,29.84,North,0,0.0,0.0,88,0.00,,,0.00,WUHU21623XXSP,2013-08-30 04:33:00,
2013-08-30 00:38:00,67.6,63.9,29.83,North,0,0.0,0.0,88,0.00,,,0.00,WUHU21623XXSP,2013-08-30 04:38:00,
2013-08-30 00:43:00,67.5,63.8,29.84,North,0,0.0,0.0,88,0.00,,,0.00,WUHU21623XXSP,2013-08-30 04:43:00,
2013-08-30 00:48:00,67.3,63.6,29.84,North,0,0.0,0.0,88,0.00,,,0.00,WUHU21623XXSP,2013-08-30 04:48:00,
2013-08-30 00:53:00,67.3,63.6,29.84,North,0,0.0,0.0,88,0.00,,,0.00,WUHU21623XXSP,2013-08-30 04:53:00,
2013-08-30 00:58:00,67.3,63.6,29.84,North,0,0.0,0.0,88,0.00,,,0.00,WUHU21623XXSP,2013-08-30 04:58:00,
2013-08-30 01:03:00,67.3,63.6,29.84,North,0,0.0,0.0,88,0.00,,,0.00,WUHU21623XXSP,2013-08-30 05:03:00,
2013-08-30 01:08:00,67.1,63.4,29.83,North,0,0.0,0.0,88,0.00,,,0.00,WUHU21623XXSP,2013-08-30 05:08:00,
2013-08-30 01:13:00,67.1,63.4,29.83,North,0,0.0,0.0,88,0.00,,,0.00,WUHU21623XXSP,2013-08-30 05:13:00,
2013-08-30 01:18:00,66.9,63.2,29.83,North,0,0.0,0.0,88,0.00,,,0.00,WUHU21623XXSP,2013-08-30 05:18:00,
2013-08-30 01:23:00,66.9,63.2,29.83,North,0,0.0,0.0,88,0.00,,,0.00,WUHU21623XXSP,2013-08-30 05:23:00,
2013-08-30 01:28:00,66.7,63.0,29.83,North,0,0.0,0.0,88,0.00,,,0.00,WUHU21623XXSP,2013-08-30 05:28:00,
2013-08-30 01:33:00,66.7,63.0,29.83,North,0,0.0,0.0,88,0.00,,,0.00,WUHU21623XXSP,2013-08-30 05:33:00,
2013-08-30 01:38:00,66.7,63.0,29.83,ENE,67,0.0,0.7,88,0.00,,,0.00,WUHU21623XXSP,2013-08-30 05:38:00,
2013-08-30 01:43:00,66.6,62.9,29.83,ENE,67,0.0,0.7,88,0.00,,,0.00,WUHU21623XXSP,2013-08-30 05:43:00,
2013-08-30 01:48:00,66.6,62.9,29.83,ENE,67,0.0,0.0,88,0.00,,,0.00,WUHU21623XXSP,2013-08-30 05:48:00,
2013-08-30 01:53:00,66.6,62.9,29.83,SSE,157,0.0,0.0,88,0.00,,,0.00,WUHU21623XXSP,2013-08-30 05:53:00,
2013-08-30 01:58:00,66.4,62.7,29.83,East,90,0.0,0.0,88,0.00,,,0.00,WUHU21623XXSP,2013-08-30 05:58:00,
2013-08-30 02:03:00,66.4,62.7,29.82,East,90,0.0,0.0,88,0.00,,,0.00,WUHU21623XXSP,2013-08-30 06:03:00,
2013-08-30 02:08:00,66.4,62.7,29.82,East,90,0.0,0.0,88,0.00,,,0.00,WUHU21623XXSP,2013-08-30 06:08:00,
2013-08-30 02:13:00,66.2,62.5,29.83,East,90,0.0,0.0,88,0.00,,,0.00,WUHU21623XXSP,2013-08-30 06:13:00,
2013-08-30 02:18:00,66.0,62.3,29.83,East,90,0.0,0.0,88,0.00,,,0.00,WUHU21623XXSP,2013-08-30 06:18:00,
2013-08-30 02:23:00,66.0,62.6,29.82,East,90,0.0,0.0,89,0.00,,,0.00,WUHU21623XXSP,2013-08-30 06:23:00,
2013-08-30 02:28:00,66.0,62.6,29.82,East,90,0.0,0.0,89,0.00,,,0.00,WUHU21623XXSP,2013-08-30 06:28:00,
2013-08-30 02:33:00,66.0,62.6,29.82,East,90,0.0,0.0,89,0.00,,,0.00,WUHU21623XXSP,2013-08-30 06:33:00,
2013-08-30 02:38:00,66.0,62.6,29.83,East,90,0.0,0.0,89,0.00,,,0.00,WUHU21623XXSP,2013-08-30 06:38:00,
2013-08-30 02:43:00,65.8,62.5,29.82,East,90,0.0,0.0,89,0.00,,,0.00,WUHU21623XXSP,2013-08-30 06:43:00,
2013-08-30 02:48:00,65.8,62.5,29.83,East,90,0.0,0.0,89,0.00,,,0.00,WUHU21623XXSP,2013-08-30 06:48:00,
2013-08-30 02:53:00,65.8,62.5,29.83,East,90,0.0,0.0,89,0.00,,,0.00,WUHU21623XXSP,2013-08-30 06:53:00,
2013-08-30 02:58:00,65.8,62.5,29.83,East,90,0.0,0.0,89,0.00,,,0.00,WUHU21623XXSP,2013-08-30 06:58:00,
2013-08-30 03:03:00,65.7,62.3,29.83,East,90,0.0,0.0,89,0.00,,,0.00,WUHU21623XXSP,2013-08-30 07:03:00,
2013-08-30 03:08:00,65.5,62.2,29.83,East,90,0.0,0.0,89,0.00,,,0.00,WUHU21623XXSP,2013-08-30 07:08:00,
2013-08-30 03:13:00,65.5,62.2,29.83,East,90,0.0,0.0,89,0.00,,,0.00,WUHU21623XXSP,2013-08-30 07:13:00,
2013-08-30 03:18:00,65.5,62.2,29.83,East,90,0.0,0.0,89,0.00,,,0.00,WUHU21623XXSP,2013-08-30 07:18:00,
2013-08-30 03:23:00,65.5,62.2,29.83,East,90,0.0,0.0,89,0.00,,,0.00,WUHU21623XXSP,2013-08-30 07:23:00,
2013-08-30 03:28:00,65.5,62.2,29.82,East,90,0.0,0.0,89,0.00,,,0.00,WUHU21623XXSP,2013-08-30 07:28:00,
2013-08-30 03:33:00,65.5,62.2,29.82,East,90,0.0,0.0,89,0.00,,,0.00,WUHU21623XXSP,2013-08-30 07:33:00,
2013-08-30 03:38:00,65.5,62.2,29.82,East,90,0.0,0.0,89,0.00,,,0.00,WUHU21623XXSP,2013-08-30 07:38:00,
2013-08-30 03:43:00,65.5,62.2,29.82,East,90,0.0,0.0,89,0.00,,,0.00,WUHU21623XXSP,2013-08-30 07:43:00,
2013-08-30 03:48:00,65.5,62.2,29.82,East,90,0.0,0.0,89,0.00,,,0.00,WUHU21623XXSP,2013-08-30 07:48:00,
2013-08-30 03:53:00,65.3,62.0,29.82,East,90,0.0,0.0,89,0.00,,,0.00,WUHU21623XXSP,2013-08-30 07:53:00,
2013-08-30 03:58:00,65.3,62.0,29.82,East,90,0.0,0.0,89,0.00,,,0.00,WUHU21623XXSP,2013-08-30 07:58:00,
2013-08-30 04:03:00,65.3,62.0,29.81,East,90,0.0,0.0,89,0.00,,,0.00,WUHU21623XXSP,2013-08-30 08:03:00,
2013-08-30 04:08:00,65.3,62.0,29.81,East,90,0.0,0.0,89,0.00,,,0.00,WUHU21623XXSP,2013-08-30 08:08:00,
2013-08-30 04:13:00,65.3,62.0,29.81,East,90,0.0,0.0,89,0.00,,,0.00,WUHU21623XXSP,2013-08-30 08:13:00,
2013-08-30 04:18:00,65.1,61.8,29.81,East,90,0.0,0.0,89,0.00,,,0.00,WUHU21623XXSP,2013-08-30 08:18:00,
2013-08-30 04:23:00,65.1,61.8,29.81,East,90,0.0,0.0,89,0.00,,,0.00,WUHU21623XXSP,2013-08-30 08:23:00,
2013-08-30 04:28:00,65.1,61.8,29.81,East,90,0.0,0.0,89,0.00,,,0.00,WUHU21623XXSP,2013-08-30 08:28:00,
2013-08-30 04:33:00,65.1,61.8,29.81,East,90,0.0,0.0,89,0.00,,,0.00,WUHU21623XXSP,2013-08-30 08:33:00,
2013-08-30 04:38:00,65.1,62.2,29.81,East,90,0.0,0.0,90,0.00,,,0.00,WUHU21623XXSP,2013-08-30 08:38:00,
2013-08-30 04:43:00,64.9,61.7,29.81,East,90,0.0,0.0,89,0.00,,,0.00,WUHU21623XXSP,2013-08-30 08:43:00,
2013-08-30 04:48:00,64.9,61.7,29.81,East,90,0.0,0.0,89,0.00,,,0.00,WUHU21623XXSP,2013-08-30 08:48:00,
2013-08-30 04:53:00,64.9,62.0,29.81,East,90,0.0,0.0,90,0.00,,,0.00,WUHU21623XXSP,2013-08-30 08:53:00,
2013-08-30 04:58:00,64.9,62.0,29.81,East,90,0.0,0.0,90,0.00,,,0.00,WUHU21623XXSP,2013-08-30 08:58:00,
2013-08-30 05:03:00,64.9,62.0,29.81,East,90,0.0,0.0,90,0.00,,,0.00,WUHU21623XXSP,2013-08-30 09:03:00,
2013-08-30 05:08:00,64.9,62.0,29.81,East,90,0.0,0.0,90,0.00,,,0.00,WUHU21623XXSP,2013-08-30 09:08:00,
2013-08-30 05:13:00,64.9,62.0,29.81,East,90,0.0,0.0,90,0.00,,,0.00,WUHU21623XXSP,2013-08-30 09:13:00,
2013-08-30 05:18:00,64.9,62.0,29.80,East,90,0.0,0.0,90,0.00,,,0.00,WUHU21623XXSP,2013-08-30 09:18:00,
2013-08-30 05:23:00,64.9,62.0,29.80,East,90,0.0,0.0,90,0.00,,,0.00,WUHU21623XXSP,2013-08-30 09:23:00,
2013-08-30 05:28:00,64.9,62.0,29.80,East,90,0.0,0.0,90,0.00,,,0.00,WUHU21623XXSP,2013-08-30 09:28:00,
2013-08-30 05:33:00,64.9,62.0,29.80,East,90,0.0,0.0,90,0.00,,,0.00,WUHU21623XXSP,2013-08-30 09:33:00,
2013-08-30 05:38:00,64.9,62.0,29.80,East,90,0.0,0.0,90,0.00,,,0.00,WUHU21623XXSP,2013-08-30 09:38:00,
2013-08-30 05:43:00,64.9,62.0,29.79,East,90,0.0,0.0,90,0.00,,,0.00,WUHU21623XXSP,2013-08-30 09:43:00,
2013-08-30 05:48:00,64.9,62.0,29.79,East,90,0.0,0.0,90,0.00,,,0.00,WUHU21623XXSP,2013-08-30 09:48:00,
2013-08-30 05:53:00,64.8,61.8,29.79,East,90,0.0,0.0,90,0.00,,,0.00,WUHU21623XXSP,2013-08-30 09:53:00,
2013-08-30 05:58:00,64.9,62.0,29.80,East,90,0.0,0.0,90,0.00,,,0.00,WUHU21623XXSP,2013-08-30 09:58:00,
2013-08-30 06:03:00,64.8,61.8,29.79,East,90,0.0,0.0,90,0.00,,,0.00,WUHU21623XXSP,2013-08-30 10:03:00,
2013-08-30 06:08:00,64.8,61.8,29.79,East,90,0.0,0.0,90,0.00,,,0.00,WUHU21623XXSP,2013-08-30 10:08:00,
2013-08-30 06:13:00,64.8,61.8,29.79,East,90,0.0,0.0,90,0.00,,,0.00,WUHU21623XXSP,2013-08-30 10:13:00,
2013-08-30 06:18:00,64.8,61.8,29.79,East,90,0.0,0.0,90,0.00,,,0.00,WUHU21623XXSP,2013-08-30 10:18:00,
2013-08-30 06:23:00,64.8,61.8,29.79,East,90,0.0,0.0,90,0.00,,,0.00,WUHU21623XXSP,2013-08-30 10:23:00,
2013-08-30 06:28:00,64.9,62.0,29.79,SSE,157,0.0,0.0,90,0.00,,,0.00,WUHU21623XXSP,2013-08-30 10:28:00,
2013-08-30 06:33:00,64.9,62.0,29.79,West,270,0.0,0.0,90,0.00,,,0.00,WUHU21623XXSP,2013-08-30 10:33:00,
2013-08-30 06:38:00,64.9,62.0,29.79,WSW,247,0.0,0.0,90,0.00,,,0.00,WUHU21623XXSP,2013-08-30 10:38:00,
2013-08-30 06:43:00,64.9,62.0,29.79,WSW,247,0.0,0.0,90,0.00,,,0.00,WUHU21623XXSP,2013-08-30 10:43:00,
2013-08-30 06:48:00,64.9,62.0,29.79,WSW,247,0.0,0.0,90,0.00,,,0.00,WUHU21623XXSP,2013-08-30 10:48:00,
2013-08-30 06:53:00,64.9,62.0,29.79,WSW,247,0.0,0.0,90,0.00,,,0.00,WUHU21623XXSP,2013-08-30 10:53:00,
2013-08-30 06:58:00,64.8,61.8,29.79,WSW,247,0.0,0.0,90,0.00,,,0.00,WUHU21623XXSP,2013-08-30 10:58:00,
2013-08-30 07:03:00,64.8,61.8,29.79,WSW,247,0.0,0.0,90,0.00,,,0.00,WUHU21623XXSP,2013-08-30 11:03:00,
2013-08-30 07:08:00,64.9,62.0,29.79,WSW,247,0.0,0.0,90,0.00,,,0.00,WUHU21623XXSP,2013-08-30 11:08:00,
2013-08-30 07:13:00,64.9,62.0,29.79,WSW,247,0.0,0.0,90,0.00,,,0.00,WUHU21623XXSP,2013-08-30 11:13:00,
2013-08-30 07:18:00,64.9,62.0,29.79,WSW,247,0.0,0.0,90,0.00,,,0.00,WUHU21623XXSP,2013-08-30 11:18:00,
2013-08-30 07:23:00,64.9,62.0,29.80,WSW,247,0.0,0.0,90,0.00,,,0.00,WUHU21623XXSP,2013-08-30 11:23:00,
2013-08-30 07:28:00,64.9,62.0,29.80,WSW,247,0.0,0.0,90,0.00,,,0.00,WUHU21623XXSP,2013-08-30 11:28:00,
2013-08-30 07:33:00,65.1,62.2,29.80,WSW,247,0.0,0.0,90,0.00,,,0.00,WUHU21623XXSP,2013-08-30 11:33:00,
2013-08-30 07:38:00,65.1,62.2,29.80,WSW,247,0.0,0.0,90,0.00,,,0.00,WUHU21623XXSP,2013-08-30 11:38:00,
2013-08-30 07:43:00,65.1,62.2,29.80,WSW,247,0.0,0.0,90,0.00,,,0.00,WUHU21623XXSP,2013-08-30 11:43:00,
2013-08-30 07:48:00,65.3,62.3,29.79,SSW,202,0.9,0.9,90,0.00,,,0.00,WUHU21623XXSP,2013-08-30 11:48:00,
2013-08-30 07:53:00,65.3,62.6,29.79,SSW,202,0.0,0.9,91,0.00,,,0.00,WUHU21623XXSP,2013-08-30 11:53:00,
2013-08-30 07:58:00,65.5,62.8,29.79,SSW,202,0.0,0.0,91,0.00,,,0.00,WUHU21623XXSP,2013-08-30 11:58:00,
2013-08-30 08:03:00,65.7,62.9,29.79,SSW,202,0.0,0.0,91,0.00,,,0.00,WUHU21623XXSP,2013-08-30 12:03:00,
2013-08-30 08:08:00,65.8,63.1,29.79,SSE,157,0.0,0.7,91,0.00,,,0.00,WUHU21623XXSP,2013-08-30 12:08:00,
2013-08-30 08:13:00,66.0,63.3,29.79,WSW,247,0.0,0.7,91,0.00,,,0.00,WUHU21623XXSP,2013-08-30 12:13:00,
2013-08-30 08:18:00,66.0,63.0,29.79,WSW,247,0.0,0.0,90,0.00,,,0.00,WUHU21623XXSP,2013-08-30 12:18:00,
2013-08-30 08:23:00,66.0,63.3,29.79,WSW,247,0.0,0.0,91,0.00,,,0.00,WUHU21623XXSP,2013-08-30 12:23:00,
2013-08-30 08:28:00,66.4,63.6,29.79,WSW,247,0.0,0.0,91,0.00,,,0.00,WUHU21623XXSP,2013-08-30 12:28:00,
2013-08-30 08:33:00,66.6,63.8,29.79,WSW,247,0.0,0.0,91,0.00,,,0.00,WUHU21623XXSP,2013-08-30 12:33:00,
2013-08-30 08:38:00,66.9,64.5,29.79,SSW,202,1.1,1.1,92,0.00,,,0.00,WUHU21623XXSP,2013-08-30 12:38:00,
2013-08-30 08:43:00,67.3,64.8,29.79,SSW,202,0.0,1.1,92,0.00,,,0.00,WUHU21623XXSP,2013-08-30 12:43:00,
2013-08-30 08:48:00,67.6,65.2,29.79,South,180,0.0,0.9,92,0.00,,,0.00,WUHU21623XXSP,2013-08-30 12:48:00,
2013-08-30 08:53:00,67.8,65.4,29.79,South,180,0.9,0.9,92,0.00,,,0.00,WUHU21623XXSP,2013-08-30 12:53:00,
2013-08-30 08:58:00,68.2,65.7,29.79,South,180,0.0,2.2,92,0.00,,,0.00,WUHU21623XXSP,2013-08-30 12:58:00,
2013-08-30 09:03:00,68.4,65.9,29.79,South,180,0.9,2.2,92,0.00,,,0.00,WUHU21623XXSP,2013-08-30 13:03:00,
2013-08-30 09:08:00,68.7,66.3,29.79,SSE,157,0.0,0.9,92,0.00,,,0.00,WUHU21623XXSP,2013-08-30 13:08:00,
2013-08-30 09:13:00,69.1,66.6,29.78,SSE,157,0.0,2.2,92,0.00,,,0.00,WUHU21623XXSP,2013-08-30 13:13:00,
2013-08-30 09:18:00,69.4,67.0,29.78,SSW,208,3.7,5.8,92,0.00,,,0.00,WUHU21623XXSP,2013-08-30 13:18:00,
2013-08-30 09:23:00,69.8,67.0,29.78,SSW,202,1.0,5.8,91,0.00,,,0.00,WUHU21623XXSP,2013-08-30 13:23:00,
2013-08-30 09:28:00,70.0,67.2,29.78,SSW,194,1.1,3.4,91,0.00,,,0.00,WUHU21623XXSP,2013-08-30 13:28:00,
2013-08-30 09:33:00,70.3,67.6,29.78,SSE,167,1.9,4.5,91,0.00,,,0.00,WUHU21623XXSP,2013-08-30 13:33:00,
2013-08-30 09:38:00,70.7,67.6,29.78,SW,235,1.0,4.5,90,0.00,,,0.00,WUHU21623XXSP,2013-08-30 13:38:00,
2013-08-30 09:43:00,71.2,68.2,29.78,SSW,197,1.4,6.3,90,0.00,,,0.00,WUHU21623XXSP,2013-08-30 13:43:00,
2013-08-30 09:48:00,71.6,68.5,29.78,SSW,206,1.6,6.3,90,0.00,,,0.00,WUHU21623XXSP,2013-08-30 13:48:00,
2013-08-30 09:53:00,72.1,69.1,29.78,SW,220,1.2,5.4,90,0.00,,,0.00,WUHU21623XXSP,2013-08-30 13:53:00,
2013-08-30 09:58:00,72.3,68.9,29.78,SSW,202,0.9,6.3,89,0.00,,,0.00,WUHU21623XXSP,2013-08-30 13:58:00,
2013-08-30 10:03:00,73.0,69.3,29.77,SSW,195,2.4,6.7,88,0.00,,,0.00,WUHU21623XXSP,2013-08-30 14:03:00,
2013-08-30 10:08:00,73.4,69.3,29.76,SSW,202,6.3,6.7,87,0.00,,,0.00,WUHU21623XXSP,2013-08-30 14:08:00,
2013-08-30 10:13:00,73.9,69.9,29.77,South,180,3.8,6.3,87,0.00,,,0.00,WUHU21623XXSP,2013-08-30 14:13:00,
2013-08-30 10:18:00,74.3,69.9,29.76,SW,216,2.2,6.3,86,0.00,,,0.00,WUHU21623XXSP,2013-08-30 14:18:00,
2013-08-30 10:23:00,74.8,70.1,29.76,SSW,198,2.4,6.0,85,0.00,,,0.00,WUHU21623XXSP,2013-08-30 14:23:00,
2013-08-30 10:28:00,75.4,70.3,29.76,South,188,2.3,4.7,84,0.00,,,0.00,WUHU21623XXSP,2013-08-30 14:28:00,
2013-08-30 10:33:00,75.9,70.4,29.76,SSE,157,1.9,8.9,83,0.00,,,0.00,WUHU21623XXSP,2013-08-30 14:33:00,
2013-08-30 10:38:00,76.3,70.4,29.76,SW,222,3.3,8.9,82,0.00,,,0.00,WUHU21623XXSP,2013-08-30 14:38:00,
2013-08-30 10:43:00,76.8,70.5,29.76,SW,225,6.0,8.5,81,0.00,,,0.00,WUHU21623XXSP,2013-08-30 14:43:00,
2013-08-30 10:48:00,77.2,70.5,29.76,South,191,1.9,8.5,80,0.00,,,0.00,WUHU21623XXSP,2013-08-30 14:48:00,
2013-08-30 10:53:00,77.5,70.5,29.76,SSW,213,2.3,8.9,79,0.00,,,0.00,WUHU21623XXSP,2013-08-30 14:53:00,
2013-08-30 10:58:00,77.9,70.5,29.76,SW,225,3.1,9.8,78,0.00,,,0.00,WUHU21623XXSP,2013-08-30 14:58:00,
2013-08-30 11:03:00,78.6,70.8,29.76,SW,227,2.5,9.8,77,0.00,,,0.00,WUHU21623XXSP,2013-08-30 15:03:00,
2013-08-30 11:08:00,78.6,71.2,29.76,South,180,8.9,10.5,78,0.00,,,0.00,WUHU21623XXSP,2013-08-30 15:08:00,
2013-08-30 11:13:00,79.0,70.3,29.76,SSW,206,3.9,10.5,75,0.00,,,0.00,WUHU21623XXSP,2013-08-30 15:13:00,
2013-08-30 11:18:00,79.3,70.7,29.76,South,182,4.2,9.6,75,0.00,,,0.00,WUHU21623XXSP,2013-08-30 15:18:00,
2013-08-30 11:23:00,79.7,70.7,29.76,South,174,2.6,9.6,74,0.00,,,0.00,WUHU21623XXSP,2013-08-30 15:23:00,
2013-08-30 11:28:00,80.2,70.8,29.76,SW,225,6.5,10.1,73,0.00,,,0.00,WUHU21623XXSP,2013-08-30 15:28:00,
2013-08-30 11:33:00,80.4,71.0,29.76,SSW,204,2.5,10.1,73,0.00,,,0.00,WUHU21623XXSP,2013-08-30 15:33:00,
2013-08-30 11:38:00,80.8,71.3,29.76,SSW,195,5.1,9.6,73,0.00,,,0.00,WUHU21623XXSP,2013-08-30 15:38:00,
2013-08-30 11:43:00,81.3,71.4,29.76,SSW,213,3.6,9.6,72,0.00,,,0.00,WUHU21623XXSP,2013-08-30 15:43:00,
2013-08-30 11:48:00,81.7,71.8,29.76,SSW,196,4.4,9.4,72,0.00,,,0.00,WUHU21623XXSP,2013-08-30 15:48:00,
2013-08-30 11:53:00,82.2,71.4,29.75,SSW,195,3.3,9.4,70,0.00,,,0.00,WUHU21623XXSP,2013-08-30 15:53:00,
2013-08-30 11:58:00,82.6,71.8,29.75,South,181,1.9,8.9,70,0.00,,,0.00,WUHU21623XXSP,2013-08-30 15:58:00,
2013-08-30 12:03:00,82.9,71.7,29.75,SW,222,2.9,9.2,69,0.00,,,0.00,WUHU21623XXSP,2013-08-30 16:03:00,
2013-08-30 12:08:00,83.3,72.5,29.75,South,190,1.7,9.2,70,0.00,,,0.00,WUHU21623XXSP,2013-08-30 16:08:00,
2013-08-30 12:13:00,83.8,72.1,29.75,South,190,1.6,6.9,68,0.00,,,0.00,WUHU21623XXSP,2013-08-30 16:13:00,
2013-08-30 12:18:00,84.2,72.5,29.74,ESE,112,0.0,7.4,68,0.00,,,0.00,WUHU21623XXSP,2013-08-30 16:18:00,
2013-08-30 12:23:00,84.7,72.1,29.74,South,172,3.6,8.7,66,0.00,,,0.00,WUHU21623XXSP,2013-08-30 16:23:00,
2013-08-30 12:28:00,84.9,72.3,29.74,SW,219,3.8,9.4,66,0.00,,,0.00,WUHU21623XXSP,2013-08-30 16:28:00,
2013-08-30 12:33:00,85.6,72.1,29.74,SSW,206,1.9,10.5,64,0.00,,,0.00,WUHU21623XXSP,2013-08-30 16:33:00,
2013-08-30 12:38:00,85.8,72.2,29.74,South,180,2.1,10.5,64,0.00,,,0.00,WUHU21623XXSP,2013-08-30 16:38:00,
2013-08-30 12:43:00,86.4,71.8,29.73,South,171,2.0,9.8,62,0.00,,,0.00,WUHU21623XXSP,2013-08-30 16:43:00,
2013-08-30 12:48:00,86.7,72.2,29.73,SSW,199,3.1,9.8,62,0.00,,,0.00,WUHU21623XXSP,2013-08-30 16:48:00,
2013-08-30 12:53:00,87.1,72.1,29.73,SSW,194,1.7,9.6,61,0.00,,,0.00,WUHU21623XXSP,2013-08-30 16:53:00,
2013-08-30 12:58:00,87.4,72.4,29.73,South,180,2.5,8.9,61,0.00,,,0.00,WUHU21623XXSP,2013-08-30 16:58:00,
2013-08-30 13:03:00,87.6,72.1,29.73,South,171,3.1,14.1,60,0.00,,,0.00,WUHU21623XXSP,2013-08-30 17:03:00,
2013-08-30 13:08:00,87.6,71.6,29.73,SSW,206,3.1,14.1,59,0.00,,,0.00,WUHU21623XXSP,2013-08-30 17:08:00,
2013-08-30 13:13:00,87.4,72.4,29.73,South,170,1.0,5.4,61,0.00,,,0.00,WUHU21623XXSP,2013-08-30 17:13:00,
2013-08-30 13:18:00,87.4,72.0,29.72,SW,224,2.0,5.4,60,0.00,,,0.00,WUHU21623XXSP,2013-08-30 17:18:00,
2013-08-30 13:23:00,87.6,71.6,29.72,SSE,157,4.0,5.4,59,0.00,,,0.00,WUHU21623XXSP,2013-08-30 17:23:00,
2013-08-30 13:28:00,87.8,71.8,29.72,South,176,3.2,8.9,59,0.00,,,0.00,WUHU21623XXSP,2013-08-30 17:28:00,
2013-08-30 13:33:00,88.2,72.1,29.71,South,169,2.3,8.9,59,0.00,,,0.00,WUHU21623XXSP,2013-08-30 17:33:00,
2013-08-30 13:38:00,88.7,72.1,29.71,South,188,4.1,8.5,58,0.00,,,0.00,WUHU21623XXSP,2013-08-30 17:38:00,
2013-08-30 13:43:00,88.9,72.2,29.71,SSW,204,4.0,8.5,58,0.00,,,0.00,WUHU21623XXSP,2013-08-30 17:43:00,
2013-08-30 13:48:00,89.4,72.2,29.71,West,259,0.9,6.0,57,0.00,,,0.00,WUHU21623XXSP,2013-08-30 17:48:00,
2013-08-30 13:53:00,89.4,72.2,29.71,SSW,196,2.3,5.4,57,0.00,,,0.00,WUHU21623XXSP,2013-08-30 17:53:00,
2013-08-30 13:58:00,89.8,72.5,29.71,SSW,199,3.5,6.9,57,0.00,,,0.00,WUHU21623XXSP,2013-08-30 17:58:00,
2013-08-30 14:03:00,90.3,73.0,29.71,South,181,2.7,7.2,57,0.00,,,0.00,WUHU21623XXSP,2013-08-30 18:03:00,
2013-08-30 14:08:00,90.5,73.1,29.71,SE,135,0.0,7.2,57,0.00,,,0.00,WUHU21623XXSP,2013-08-30 18:08:00,
2013-08-30 14:13:00,90.7,73.3,29.71,SSW,210,1.8,5.8,57,0.00,,,0.00,WUHU21623XXSP,2013-08-30 18:13:00,
2013-08-30 14:18:00,91.0,73.6,29.71,SSW,202,3.1,5.8,57,0.00,,,0.00,WUHU21623XXSP,2013-08-30 18:18:00,
2013-08-30 14:23:00,91.2,73.2,29.71,SW,215,2.6,8.7,56,0.00,,,0.00,WUHU21623XXSP,2013-08-30 18:23:00,
2013-08-30 14:29:00,91.2,73.2,29.71,NNW,337,1.6,8.7,56,0.00,,,0.00,WUHU21623XXSP,2013-08-30 18:29:00,
2013-08-30 14:34:00,91.0,73.6,29.71,SW,225,5.8,6.7,57,0.00,,,0.00,WUHU21623XXSP,2013-08-30 18:34:00,
2013-08-30 14:39:00,90.7,73.3,29.70,SSW,202,3.4,6.7,57,0.00,,,0.00,WUHU21623XXSP,2013-08-30 18:39:00,
2013-08-30 14:44:00,90.7,73.8,29.70,SW,221,1.8,5.8,58,0.00,,,0.00,WUHU21623XXSP,2013-08-30 18:44:00,
2013-08-30 14:49:00,90.9,73.5,29.70,WNW,292,2.0,7.2,57,0.00,,,0.00,WUHU21623XXSP,2013-08-30 18:49:00,
2013-08-30 14:54:00,91.0,73.6,29.69,NW,306,1.0,7.2,57,0.00,,,0.00,WUHU21623XXSP,2013-08-30 18:54:00,
2013-08-30 14:59:00,91.0,73.6,29.69,SW,219,2.1,6.9,57,0.00,,,0.00,WUHU21623XXSP,2013-08-30 18:59:00,
2013-08-30 15:04:00,91.0,74.2,29.69,SSW,192,2.2,8.5,58,0.00,,,0.00,WUHU21623XXSP,2013-08-30 19:04:00,
2013-08-30 15:09:00,91.2,73.8,29.68,SW,215,2.3,8.5,57,0.00,,,0.00,WUHU21623XXSP,2013-08-30 19:09:00,
2013-08-30 15:14:00,91.2,73.8,29.68,SSW,204,2.1,6.0,57,0.00,,,0.00,WUHU21623XXSP,2013-08-30 19:14:00,
2013-08-30 15:19:00,91.2,74.3,29.68,South,181,2.7,8.7,58,0.00,,,0.00,WUHU21623XXSP,2013-08-30 19:19:00,
2013-08-30 15:24:00,91.6,74.1,29.68,WNW,292,1.0,8.7,57,0.00,,,0.00,WUHU21623XXSP,2013-08-30 19:24:00,
2013-08-30 15:29:00,91.4,73.9,29.68,SSW,211,3.1,8.3,57,0.00,,,0.00,WUHU21623XXSP,2013-08-30 19:29:00,
2013-08-30 15:34:00,91.2,73.8,29.67,West,260,1.4,6.9,57,0.00,,,0.00,WUHU21623XXSP,2013-08-30 19:34:00,
2013-08-30 15:39:00,91.2,73.8,29.67,SSW,212,2.9,8.5,57,0.00,,,0.00,WUHU21623XXSP,2013-08-30 19:39:00,
2013-08-30 15:44:00,91.2,73.8,29.67,South,180,2.2,8.5,57,0.00,,,0.00,WUHU21623XXSP,2013-08-30 19:44:00,
2013-08-30 15:49:00,90.9,73.5,29.67,SSW,211,2.4,11.4,57,0.00,,,0.00,WUHU21623XXSP,2013-08-30 19:49:00,
2013-08-30 15:54:00,90.7,73.8,29.66,SSW,202,2.0,11.4,58,0.00,,,0.00,WUHU21623XXSP,2013-08-30 19:54:00,
2013-08-30 15:59:00,90.3,73.5,29.67,SSW,192,1.9,4.7,58,0.00,,,0.00,WUHU21623XXSP,2013-08-30 19:59:00,
2013-08-30 16:04:00,90.3,73.0,29.66,SSW,203,3.9,8.1,57,0.00,,,0.00,WUHU21623XXSP,2013-08-30 20:04:00,
2013-08-30 16:09:00,90.5,73.7,29.66,SSW,202,1.8,8.1,58,0.00,,,0.00,WUHU21623XXSP,2013-08-30 20:09:00,
2013-08-30 16:14:00,90.7,73.8,29.65,SW,217,2.5,7.6,58,0.00,,,0.00,WUHU21623XXSP,2013-08-30 20:14:00,
2013-08-30 16:19:00,90.7,73.8,29.66,SSW,212,1.2,7.4,58,0.00,,,0.00,WUHU21623XXSP,2013-08-30 20:19:00,
2013-08-30 16:24:00,90.5,73.7,29.65,SSW,202,2.9,8.9,58,0.00,,,0.00,WUHU21623XXSP,2013-08-30 20:24:00,
2013-08-30 16:29:00,90.5,73.7,29.66,SW,226,2.2,8.9,58,0.00,,,0.00,WUHU21623XXSP,2013-08-30 20:29:00,
2013-08-30 16:34:00,90.1,73.9,29.65,South,189,2.2,9.2,59,0.00,,,0.00,WUHU21623XXSP,2013-08-30 20:34:00,
2013-08-30 16:39:00,90.1,73.9,29.65,SSW,202,2.9,9.2,59,0.00,,,0.00,WUHU21623XXSP,2013-08-30 20:39:00,
2013-08-30 16:44:00,90.1,73.9,29.65,South,182,3.5,7.2,59,0.00,,,0.00,WUHU21623XXSP,2013-08-30 20:44:00,
2013-08-30 16:49:00,90.1,73.9,29.65,SSW,202,2.9,7.2,59,0.00,,,0.00,WUHU21623XXSP,2013-08-30 20:49:00,
2013-08-30 16:54:00,90.3,74.0,29.65,SSW,193,2.2,4.5,59,0.00,,,0.00,WUHU21623XXSP,2013-08-30 20:54:00,
2013-08-30 16:59:00,90.3,74.0,29.65,WNW,292,1.8,10.3,59,0.00,,,0.00,WUHU21623XXSP,2013-08-30 20:59:00,
2013-08-30 17:04:00,90.3,74.0,29.64,SSW,208,1.3,10.3,59,0.00,,,0.00,WUHU21623XXSP,2013-08-30 21:04:00,
2013-08-30 17:09:00,90.3,74.0,29.64,SSW,207,2.7,7.8,59,0.00,,,0.00,WUHU21623XXSP,2013-08-30 21:09:00,
2013-08-30 17:14:00,90.3,74.0,29.64,SSW,202,6.3,9.8,59,0.00,,,0.00,WUHU21623XXSP,2013-08-30 21:14:00,
2013-08-30 17:19:00,90.3,74.0,29.64,SSW,198,2.2,9.8,59,0.00,,,0.00,WUHU21623XXSP,2013-08-30 21:19:00,
2013-08-30 17:24:00,90.3,74.0,29.63,SW,225,2.2,9.6,59,0.00,,,0.00,WUHU21623XXSP,2013-08-30 21:24:00,
2013-08-30 17:29:00,90.3,74.0,29.63,SSE,157,3.8,9.6,59,0.00,,,0.00,WUHU21623XXSP,2013-08-30 21:29:00,
2013-08-30 17:34:00,90.3,74.0,29.63,SSW,202,7.8,7.8,59,0.00,,,0.00,WUHU21623XXSP,2013-08-30 21:34:00,
2013-08-30 17:39:00,90.3,74.6,29.63,NW,310,0.9,7.8,60,0.00,,,0.00,WUHU21623XXSP,2013-08-30 21:39:00,
2013-08-30 17:44:00,90.3,74.0,29.63,SSW,192,3.8,9.8,59,0.00,,,0.00,WUHU21623XXSP,2013-08-30 21:44:00,
2013-08-30 17:49:00,90.1,74.4,29.63,SSW,211,1.5,9.8,60,0.00,,,0.00,WUHU21623XXSP,2013-08-30 21:49:00,
2013-08-30 17:54:00,89.8,74.1,29.63,SSW,202,1.7,6.3,60,0.00,,,0.00,WUHU21623XXSP,2013-08-30 21:54:00,
2013-08-30 17:59:00,89.4,74.2,29.63,SSW,212,1.5,7.2,61,0.00,,,0.00,WUHU21623XXSP,2013-08-30 21:59:00,
2013-08-30 18:04:00,89.2,74.1,29.62,South,180,3.6,7.2,61,0.00,,,0.00,WUHU21623XXSP,2013-08-30 22:04:00,
2013-08-30 18:09:00,88.9,73.7,29.62,SSW,205,3.0,7.2,61,0.00,,,0.00,WUHU21623XXSP,2013-08-30 22:09:00,
2013-08-30 18:14:00,88.7,73.6,29.62,SSW,195,1.2,7.2,61,0.00,,,0.00,WUHU21623XXSP,2013-08-30 22:14:00,
2013-08-30 18:19:00,88.5,73.9,29.62,SSE,157,2.0,6.5,62,0.00,,,0.00,WUHU21623XXSP,2013-08-30 22:19:00,
2013-08-30 18:24:00,88.3,73.7,29.62,South,189,1.7,6.5,62,0.00,,,0.00,WUHU21623XXSP,2013-08-30 22:24:00,
2013-08-30 18:29:00,88.2,73.5,29.62,SW,225,1.5,5.1,62,0.00,,,0.00,WUHU21623XXSP,2013-08-30 22:29:00,
2013-08-30 18:34:00,88.0,73.8,29.61,SSW,193,1.9,5.8,63,0.00,,,0.00,WUHU21623XXSP,2013-08-30 22:34:00,
2013-08-30 18:39:00,88.0,74.3,29.61,SSW,202,0.0,5.8,64,0.00,,,0.00,WUHU21623XXSP,2013-08-30 22:39:00,
2013-08-30 18:44:00,87.6,74.4,29.61,SSW,200,1.3,3.1,65,0.00,,,0.00,WUHU21623XXSP,2013-08-30 22:44:00,
2013-08-30 18:49:00,87.1,73.9,29.60,SSW,206,2.7,5.8,65,0.00,,,0.00,WUHU21623XXSP,2013-08-30 22:49:00,
2013-08-30 18:54:00,86.7,74.0,29.60,South,180,0.9,5.8,66,0.00,,,0.00,WUHU21623XXSP,2013-08-30 22:54:00,
2013-08-30 18:59:00,86.4,74.1,29.60,SW,217,1.7,4.5,67,0.00,,,0.00,WUHU21623XXSP,2013-08-30 22:59:00,
2013-08-30 19:04:00,86.2,74.0,29.60,SSW,192,2.1,5.8,67,0.00,,,0.00,WUHU21623XXSP,2013-08-30 23:04:00,
2013-08-30 19:09:00,85.8,74.1,29.59,South,180,0.7,5.8,68,0.00,,,0.00,WUHU21623XXSP,2013-08-30 23:09:00,
2013-08-30 19:14:00,85.8,74.1,29.59,South,180,1.5,4.0,68,0.00,,,0.00,WUHU21623XXSP,2013-08-30 23:14:00,
2013-08-30 19:19:00,85.5,73.7,29.59,SSW,196,2.1,7.2,68,0.00,,,0.00,WUHU21623XXSP,2013-08-30 23:19:00,
2013-08-30 19:24:00,85.3,74.0,29.58,SE,135,1.3,7.2,69,0.00,,,0.00,WUHU21623XXSP,2013-08-30 23:24:00,
2013-08-30 19:29:00,85.3,74.0,29.59,South,186,1.3,2.5,69,0.00,,,0.00,WUHU21623XXSP,2013-08-30 23:29:00,
2013-08-30 19:34:00,84.9,74.1,29.61,NNE,22,1.0,2.5,70,0.00,,,0.00,WUHU21623XXSP,2013-08-30 23:34:00,
2013-08-30 19:39:00,84.6,74.2,29.60,East,90,0.0,1.6,71,0.00,,,0.00,WUHU21623XXSP,2013-08-30 23:39:00,
2013-08-30 19:44:00,84.0,74.0,29.59,East,90,0.0,0.0,72,0.00,,,0.00,WUHU21623XXSP,2013-08-30 23:44:00,
2013-08-30 19:49:00,83.5,73.5,29.59,East,90,0.7,0.7,72,0.00,,,0.00,WUHU21623XXSP,2013-08-30 23:49:00,
2013-08-30 19:54:00,83.1,73.5,29.61,East,90,0.0,0.7,73,0.00,,,0.00,WUHU21623XXSP,2013-08-30 23:54:00,
2013-08-30 19:59:00,82.8,73.6,29.62,ENE,67,0.0,0.9,74,0.00,,,0.00,WUHU21623XXSP,2013-08-30 23:59:00,
2013-08-30 20:04:00,82.6,73.4,29.62,ENE,67,0.0,0.9,74,0.00,,,0.00,WUHU21623XXSP,2013-08-31 00:04:00,
2013-08-30 20:09:00,82.4,73.7,29.62,ENE,67,0.0,0.0,75,0.00,,,0.00,WUHU21623XXSP,2013-08-31 00:09:00,
2013-08-30 20:14:00,82.4,73.7,29.62,ENE,67,0.8,0.9,75,0.00,,,0.00,WUHU21623XXSP,2013-08-31 00:14:00,
2013-08-30 20:19:00,82.2,73.5,29.62,ENE,67,0.0,2.2,75,0.00,,,0.00,WUHU21623XXSP,2013-08-31 00:19:00,
2013-08-30 20:24:00,82.0,73.7,29.62,ENE,67,0.0,2.2,76,0.00,,,0.00,WUHU21623XXSP,2013-08-31 00:24:00,
2013-08-30 20:29:00,81.7,73.4,29.62,West,270,0.0,1.3,76,0.00,,,0.00,WUHU21623XXSP,2013-08-31 00:29:00,
2013-08-30 20:34:00,81.7,73.8,29.61,West,270,0.0,1.3,77,0.00,,,0.00,WUHU21623XXSP,2013-08-31 00:34:00,
2013-08-30 20:39:00,81.7,73.4,29.62,West,270,0.0,0.0,76,0.00,,,0.00,WUHU21623XXSP,2013-08-31 00:39:00,
2013-08-30 20:44:00,81.5,73.6,29.63,NNE,22,0.9,1.3,77,0.00,,,0.00,WUHU21623XXSP,2013-08-31 00:44:00,
2013-08-30 20:49:00,81.3,73.4,29.62,NNE,22,0.0,2.2,77,0.00,,,0.00,WUHU21623XXSP,2013-08-31 00:49:00,
2013-08-30 20:54:00,81.1,73.7,29.62,NNE,22,0.0,2.2,78,0.00,,,0.00,WUHU21623XXSP,2013-08-31 00:54:00,
2013-08-30 20:59:00,81.0,73.5,29.62,North,0,0.0,0.0,78,0.00,,,0.00,WUHU21623XXSP,2013-08-31 00:59:00,
2013-08-30 21:04:00,81.0,74.3,29.62,North,0,0.0,0.0,80,0.00,,,0.00,WUHU21623XXSP,2013-08-31 01:04:00,
2013-08-30 21:09:00,80.8,74.1,29.62,North,0,0.0,0.0,80,0.02,,,0.02,WUHU21623XXSP,2013-08-31 01:09:00,
2013-08-30 21:14:00,80.4,74.1,29.61,North,0,0.0,0.0,81,0.02,,,0.02,WUHU21623XXSP,2013-08-31 01:14:00,
2013-08-30 21:19:00,80.2,74.3,29.61,North,0,0.0,0.0,82,0.02,,,0.02,WUHU21623XXSP,2013-08-31 01:19:00,
2013-08-30 21:24:00,79.5,73.9,29.63,NW,315,2.2,2.5,83,0.02,,,0.02,WUHU21623XXSP,2013-08-31 01:24:00,
2013-08-30 21:29:00,79.2,73.2,29.63,North,0,1.1,3.8,82,0.02,,,0.02,WUHU21623XXSP,2013-08-31 01:29:00,
2013-08-30 21:34:00,78.6,73.0,29.63,NNE,22,1.2,3.8,83,0.02,,,0.02,WUHU21623XXSP,2013-08-31 01:34:00,
2013-08-30 21:39:00,78.1,72.5,29.63,NNW,333,1.1,2.0,83,0.02,,,0.02,WUHU21623XXSP,2013-08-31 01:39:00,
2013-08-30 21:44:00,77.7,72.1,29.63,NNE,22,1.1,2.0,83,0.02,,,0.02,WUHU21623XXSP,2013-08-31 01:44:00,
2013-08-30 21:49:00,77.2,71.6,29.63,NNE,22,1.4,2.5,83,0.02,,,0.02,WUHU21623XXSP,2013-08-31 01:49:00,
2013-08-30 21:54:00,76.8,71.2,29.63,NNE,22,1.1,2.5,83,0.02,,,0.02,WUHU21623XXSP,2013-08-31 01:54:00,
2013-08-30 21:59:00,76.3,71.1,29.63,NNE,22,1.3,1.8,84,0.02,,,0.02,WUHU21623XXSP,2013-08-31 01:59:00,
2013-08-30 22:04:00,75.9,70.8,29.63,North,0,0.9,1.3,84,0.02,,,0.02,WUHU21623XXSP,2013-08-31 02:04:00,
2013-08-30 22:09:00,75.7,70.6,29.64,NE,45,0.0,2.0,84,0.00,,,0.02,WUHU21623XXSP,2013-08-31 02:09:00,
2013-08-30 22:14:00,75.4,70.6,29.64,NNE,22,0.8,2.0,85,0.00,,,0.02,WUHU21623XXSP,2013-08-31 02:14:00,
2013-08-30 22:19:00,75.2,70.8,29.64,NNE,22,0.0,1.6,86,0.00,,,0.02,WUHU21623XXSP,2013-08-31 02:19:00,
2013-08-30 22:24:00,75.0,70.6,29.64,NNE,22,0.0,0.7,86,0.00,,,0.02,WUHU21623XXSP,2013-08-31 02:24:00,
2013-08-30 22:29:00,74.8,70.1,29.64,NNE,22,0.9,0.9,85,0.00,,,0.02,WUHU21623XXSP,2013-08-31 02:29:00,
2013-08-30 22:34:00,74.7,70.2,29.64,NNE,22,0.0,0.9,86,0.00,,,0.02,WUHU21623XXSP,2013-08-31 02:34:00,
2013-08-30 22:39:00,74.5,70.1,29.65,NNE,22,0.0,0.0,86,0.00,,,0.02,WUHU21623XXSP,2013-08-31 02:39:00,
2013-08-30 22:44:00,74.5,70.1,29.65,NNE,22,0.0,0.0,86,0.00,,,0.02,WUHU21623XXSP,2013-08-31 02:44:00,
2013-08-30 22:49:00,74.3,69.9,29.65,NNE,22,0.0,0.0,86,0.00,,,0.02,WUHU21623XXSP,2013-08-31 02:49:00,
2013-08-30 22:54:00,74.1,70.0,29.66,NNE,22,0.0,0.0,87,0.00,,,0.02,WUHU21623XXSP,2013-08-31 02:54:00,
2013-08-30 22:59:00,74.1,70.0,29.66,NNE,22,0.0,0.0,87,0.00,,,0.02,WUHU21623XXSP,2013-08-31 02:59:00,
2013-08-30 23:04:00,74.1,70.0,29.66,NNE,22,0.0,0.7,87,0.00,,,0.02,WUHU21623XXSP,2013-08-31 03:04:00,
2013-08-30 23:09:00,73.9,69.9,29.65,NNE,22,0.0,0.7,87,0.00,,,0.02,WUHU21623XXSP,2013-08-31 03:09:00,
2013-08-30 23:14:00,73.9,70.2,29.65,NNE,22,0.0,0.0,88,0.00,,,0.02,WUHU21623XXSP,2013-08-31 03:14:00,
2013-08-30 23:19:00,73.9,70.2,29.65,NNE,22,0.0,0.0,88,0.00,,,0.02,WUHU21623XXSP,2013-08-31 03:19:00,
2013-08-30 23:24:00,73.8,70.0,29.66,NNE,22,0.0,0.0,88,0.00,,,0.02,WUHU21623XXSP,2013-08-31 03:24:00,
2013-08-30 23:29:00,73.8,70.0,29.66,NNE,22,0.0,0.0,88,0.00,,,0.02,WUHU21623XXSP,2013-08-31 03:29:00,
2013-08-30 23:34:00,73.8,70.0,29.66,NNE,22,0.0,0.0,88,0.00,,,0.02,WUHU21623XXSP,2013-08-31 03:34:00,
2013-08-30 23:39:00,73.8,70.0,29.66,NNE,22,0.0,0.0,88,0.00,,,0.02,WUHU21623XXSP,2013-08-31 03:39:00,
2013-08-30 23:44:00,73.8,70.0,29.66,NNE,22,0.9,0.9,88,0.00,,,0.02,WUHU21623XXSP,2013-08-31 03:44:00,
2013-08-30 23:49:00,73.6,69.8,29.65,NNE,22,0.9,0.9,88,0.00,,,0.02,WUHU21623XXSP,2013-08-31 03:49:00,
2013-08-30 23:54:00,73.6,69.8,29.65,NNE,22,0.9,1.3,88,0.00,,,0.02,WUHU21623XXSP,2013-08-31 03:54:00,
2013-08-30 23:59:00,73.4,69.7,29.65,NNE,22,0.0,1.3,88,0.00,,,0.02,WUHU21623XXSP,2013-08-31 03:59:00,